Regional Weather Roundup
Issued by NWS

Home | Current Version | Previous Version | Graphics & Text | Print | Product List | Glossary On
Versions: 1 2 3 4 5 6 7 8 9 10 11 12 13 14 15 16 17 18 19 20 21 22 23 24 25 26 27 28 29 30 31 32 33 34 35 36 37 38 39 40 41 42 43 44 45 46 47 48 49 50
311
ASUS43 KDMX 260601
RWRIA

WEATHER ROUNDUP FOR IOWA
NATIONAL WEATHER SERVICE DES MOINES IA
100 AM CDT FRI MAY 26 2017

NOTE: "FAIR" INDICATES FEW OR NO CLOUDS BELOW 12,000 FEET WITH NO
SIGNIFICANT WEATHER AND/OR OBSTRUCTIONS TO VISIBILITY.

* - THESE STATIONS ARE NOT NWS STATIONS...THUS NOT UNDER NWS
QUALITY CONTROL.  THEY ALSO DO NOT REPORT WEATHER SUCH
AS PRECIPITATION OR FOG.

IAZ001>003-012>014-020>022-031>034-043>046-260700-
   NORTHWEST IOWA

CITY           SKY/WX    TMP DP  RH WIND       PRES   REMARKS
CARROLL *      CLOUDY    59  55  88 S5        29.70R
CHEROKEE *     CLEAR     59  54  82 S5        29.68R
DENISON *      CLOUDY    64  54  68 S12       29.69S
LE MARS *      CLOUDY    63  54  72 SE7       29.66R
ORANGE CITY *  MOCLDY    61  54  77 S5        29.67R
SHELDON *      MOCLDY    59  52  77 S8        29.66R
SIOUX CITY     CLOUDY    60  55  83 SE6       29.65R
6HR MIN TEMP:  57; 6HR MAX TEMP:  73;

SPENCER        CLEAR     58  51  78 SE9       29.68R
6HR MIN TEMP:  58; 6HR MAX TEMP:  69;

STORM LAKE *   CLEAR     59  52  77 SE12      29.69R
$$

IAZ055>058-069>071-079>083-090>094-260700-
   SOUTHWEST IOWA

CITY           SKY/WX    TMP DP  RH WIND       PRES   REMARKS
ATLANTIC *     CLOUDY    63  54  72 S5        29.69S
AUDUBON *      CLOUDY    59  54  82 CALM      29.71R
CLARINDA *     CLOUDY    64  55  72 S5        29.70F
COUNCIL BLFS * CLOUDY    66  57  72 S9G17     29.67S
CRESTON *      CLOUDY    61  54  77 S8        29.72R
HARLAN  *      CLOUDY    64  55  72 SE6       29.72S
LAMONI         CLOUDY    61  53  75 SE6       29.71S
6HR MIN TEMP:  60; 6HR MAX TEMP:  70;

RED OAK *      CLOUDY    64  55  72 S3        29.68S
SHENANDOAH *   CLOUDY    68  55  64 SE13      29.67F
$$

IAZ047>049-059>061-072>074-084-260700-
   CENTRAL IOWA

CITY           SKY/WX    TMP DP  RH WIND       PRES   REMARKS
AMES           PTCLDY    57  53  86 CALM      29.71S
6HR MIN TEMP:  55; 6HR MAX TEMP:  69;

ANKENY *       MOCLDY    61  52  72 CALM      29.72R
BOONE *        PTCLDY    59  55  88 SE6       29.71R
CHARITON *     CLOUDY    64  52  63 S16       29.70S
DES MOINES     PTCLDY    63  52  67 CALM      29.71R
6HR MIN TEMP:  63; 6HR MAX TEMP:  72; 6HR PCP: TRACE;

GRINNELL*      CLOUDY    61  51  70 SE3       29.74F
KNOXVILLE *    CLOUDY    63  52  67 CALM      29.69R
MARSHALLTOWN   MOCLDY    56  51  84 E6        29.72F
6HR MIN TEMP:  56; 6HR MAX TEMP:  71;

NEWTON *       CLOUDY    59  52  77 E6        29.71F
PERRY *          N/A     60  52  76 E3        29.71R
$$

IAZ004>006-015-016-023>025-035-036-260700-
   NORTH CENTRAL IOWA

CITY           SKY/WX    TMP DP  RH WIND       PRES   REMARKS
ALGONA *       CLOUDY    61  52  72 SE12      29.69F
CLARION *      CLEAR     61  52  72 SE10      29.71S
ESTHERVILLE    PTCLDY    55  52  89 S7        29.68R
6HR MIN TEMP:  55; 6HR MAX TEMP:  63; 6HR PCP: TRACE;

FORT DODGE *   CLEAR     59  50  72 SE5       29.71S
MASON CITY     PTCLDY    58  50  75 SE9       29.73F
6HR MIN TEMP:  54; 6HR MAX TEMP:  65; 6HR PCP:  0.01;

FOREST CITY *    N/A     55  43  62 S5        29.71S
WEBSTER CITY * CLEAR     55  52  88 E7        29.70R
$$

IAZ007>011-017>019-026>030-037>042-050>054-066-260700-
   NORTHEAST IOWA

CITY           SKY/WX    TMP DP  RH WIND       PRES   REMARKS
CEDAR RAPIDS   CLOUDY    58  54  86 E7        29.74S
6HR MIN TEMP:  58; 6HR MAX TEMP:  70; 6HR PCP: TRACE;

CHARLES CITY * CLOUDY    61  52  72 SE6       29.74F
CLINTON *      CLOUDY    58  55  90 S6        29.78
DUBUQUE        CLOUDY    58  54  86 SW5       29.78R
6HR MIN TEMP:  58; 6HR MAX TEMP:  68;

MONTICELLO *   CLOUDY    61  55  82 SE6       29.77R
OELWEIN *      PTCLDY    59  55  88 SE8       29.76F
WATERLOO       CLOUDY    58  51  78 E3        29.74F
6HR MIN TEMP:  58; 6HR MAX TEMP:  70;

$$

IAZ064-065-067-068-078-260700-
   EAST CENTRAL IOWA

CITY           SKY/WX    TMP DP  RH WIND       PRES   REMARKS
DAVENPORT      CLOUDY    61  55  81 SE9       29.77R
6HR MIN TEMP:  59; 6HR MAX TEMP:  69;

IOWA CITY      CLOUDY    63  52  67 E3        29.78R
6HR MIN TEMP:  61; 6HR MAX TEMP:  72;

MT. PLEASANT * MOCLDY    61  54  77 S12       29.75S
MUSCATINE *    CLOUDY    63  54  72 N5        29.77R
QUAD CITIES    CLOUDY    60  54  80 SE9       29.76R
6HR MIN TEMP:  57; 6HR MAX TEMP:  72;

$$

IAZ062-063-075>077-085>089-095>099-260700-
   SOUTHEAST IOWA

CITY           SKY/WX    TMP DP  RH WIND       PRES   REMARKS
BURLINGTON     MOCLDY    63  55  75 SE6       29.76S
6HR MIN TEMP:  59; 6HR MAX TEMP:  71;

FAIRFIELD *    CLOUDY    63  52  67 S5        29.74S
FORT MADISON * CLOUDY    64  55  72 CALM      29.78R
KEOKUK *       CLOUDY    63  54  72 SE6       29.74F
OSKALOOSA *      N/A     61  51  71 SE7       29.72F
OTTUMWA        CLOUDY    60  52  74 SE9       29.72F
6HR MIN TEMP:  59; 6HR MAX TEMP:  70;

WASHINGTON *   CLOUDY    63  54  72 CALM      29.78R
$$

ABBREVIATIONS USED IN REMARKS
   TC - TEMPERATURES IN CELSIUS
  WCI - WIND CHILL INDEX
   HX - HEAT INDEX
  VSB - VISIBILITY
$$





USA.gov is the U.S. government's official web portal to all federal, state and local government web resources and services.